AUA2632 EFKT-LOWW

Flight info

Callsign AUA2632
Flight time N/A
Altitude 37000
Route TUGPU Y86 EVSET DCT IBOSU/N0444F360 DCT LUTAL DCT BERIL/N0450F370 DCT BOKSU/N0448F360 DCT UVROB DCT BAVOK DCT MIKOV MIKOV8W
Aircraft A320/M-SDE3FGHIRWY/LB1

Departure

Time 2026-04-20 12:42
Airport Kittilä International Airport (EFKT)

Arrival

Time N/A
Airport Vienna International Airport (LOWW)
Time Latitude Longitude Altitude Speed Heading
2026-04-20 12:02 67.69638 24.85648 642 ft 0 kts 75°
2026-04-20 12:04 67.69638 24.85647 642 ft 0 kts 75°
2026-04-20 12:11 67.69637 24.85647 642 ft 0 kts 75°
2026-04-20 12:12 67.69637 24.85646 642 ft 0 kts 75°
2026-04-20 12:19 67.69637 24.85645 642 ft 0 kts 75°
2026-04-20 12:27 67.69637 24.85644 642 ft 0 kts 75°
2026-04-20 12:35 67.69637 24.85638 642 ft 2 kts 76°
2026-04-20 12:36 67.69631 24.85571 642 ft 4 kts 83°
2026-04-20 12:36 67.69630 24.85502 642 ft 4 kts 105°
2026-04-20 12:36 67.69641 24.85454 642 ft 3 kts 166°
2026-04-20 12:36 67.69644 24.85452 643 ft 3 kts 168°
2026-04-20 12:39 67.69639 24.85455 641 ft 4 kts 169°
2026-04-20 12:39 67.69577 24.85486 642 ft 14 kts 174°
2026-04-20 12:39 67.69521 24.85295 642 ft 17 kts 255°
2026-04-20 12:40 67.69459 24.85111 643 ft 14 kts 174°
2026-04-20 12:40 67.69339 24.85190 645 ft 25 kts 165°
2026-04-20 12:40 67.69203 24.85281 643 ft 20 kts 166°
2026-04-20 12:40 67.69096 24.85417 642 ft 14 kts 140°
2026-04-20 12:41 67.69052 24.85488 643 ft 5 kts 178°
2026-04-20 12:41 67.69042 24.85395 642 ft 15 kts 310°
2026-04-20 12:41 67.69205 24.85270 643 ft 49 kts 345°
2026-04-20 12:41 67.69767 24.84909 641 ft 114 kts 346°
2026-04-20 12:42 67.70702 24.84334 762 ft 152 kts 348°
2026-04-20 12:42 67.71762 24.83819 1437 ft 153 kts 351°
2026-04-20 12:42 67.72822 24.83418 2123 ft 158 kts 351°
2026-04-20 12:42 67.73944 24.83562 2785 ft 166 kts 13°
2026-04-20 12:43 67.75011 24.84812 3448 ft 170 kts 33°
2026-04-20 12:43 67.75849 24.87067 4109 ft 176 kts 55°
2026-04-20 12:43 67.76307 24.90120 4770 ft 183 kts 78°
2026-04-20 12:43 67.76255 24.93505 5435 ft 189 kts 103°
2026-04-20 12:44 67.75653 24.96634 5989 ft 198 kts 129°
2026-04-20 12:44 67.74661 24.99252 6537 ft 206 kts 133°
2026-04-20 12:44 67.73622 25.01934 7054 ft 212 kts 133°
2026-04-20 12:44 67.72531 25.04619 7562 ft 218 kts 142°
2026-04-20 12:45 67.71183 25.06490 8046 ft 228 kts 163°
2026-04-20 12:45 67.69614 25.07538 8583 ft 238 kts 167°
2026-04-20 12:45 67.67967 25.08585 9119 ft 249 kts 167°
2026-04-20 12:45 67.66234 25.09681 9665 ft 264 kts 168°
2026-04-20 12:46 67.64402 25.10838 10218 ft 278 kts 168°
2026-04-20 12:46 67.62475 25.12055 10719 ft 292 kts 168°
2026-04-20 12:46 67.60451 25.13333 11225 ft 306 kts 168°
2026-04-20 12:46 67.58334 25.14666 11713 ft 320 kts 168°
2026-04-20 12:47 67.56158 25.16043 12229 ft 332 kts 168°
2026-04-20 12:47 67.53870 25.17496 12752 ft 344 kts 168°
2026-04-20 12:47 67.51505 25.19001 13287 ft 355 kts 168°
2026-04-20 12:47 67.49072 25.20567 13831 ft 365 kts 168°
2026-04-20 12:48 67.46581 25.22184 14356 ft 373 kts 168°
2026-04-20 12:48 67.44037 25.23838 14847 ft 381 kts 168°
2026-04-20 12:48 67.41440 25.25526 15344 ft 388 kts 168°
2026-04-20 12:48 67.38801 25.27231 15848 ft 394 kts 168°
2026-04-20 12:49 67.36194 25.28904 16289 ft 387 kts 168°
2026-04-20 12:49 67.33590 25.30565 16644 ft 385 kts 168°
2026-04-20 12:49 67.30986 25.32224 17014 ft 386 kts 168°
2026-04-20 12:49 67.28352 25.33643 17383 ft 387 kts 173°
2026-04-20 12:50 67.25683 25.34506 17760 ft 387 kts 177°
2026-04-20 12:50 67.22988 25.35013 18148 ft 389 kts 180°
2026-04-20 12:50 67.20281 25.35329 18528 ft 391 kts 180°
2026-04-20 12:50 67.17556 25.35602 18871 ft 394 kts 180°
2026-04-20 12:51 67.14807 25.35913 19212 ft 396 kts 180°
2026-04-20 12:51 67.12046 25.36291 19554 ft 399 kts 179°
2026-04-20 12:51 67.09307 25.36723 19892 ft 401 kts 179°
2026-04-20 12:51 67.06513 25.37193 20246 ft 404 kts 179°
2026-04-20 12:52 67.03702 25.37683 20586 ft 406 kts 179°
2026-04-20 12:52 67.00871 25.38184 20949 ft 409 kts 179°
2026-04-20 12:52 66.98026 25.38680 21314 ft 411 kts 179°
2026-04-20 12:52 66.95158 25.39165 21678 ft 414 kts 179°
2026-04-20 12:53 66.92277 25.39641 22048 ft 417 kts 180°
2026-04-20 12:53 66.89372 25.40117 22431 ft 419 kts 180°
2026-04-20 12:53 66.86489 25.40591 22806 ft 422 kts 180°
2026-04-20 12:53 66.83550 25.41074 23192 ft 425 kts 180°
2026-04-20 12:54 66.80590 25.41563 23565 ft 427 kts 180°
2026-04-20 12:54 66.77617 25.42055 23949 ft 429 kts 180°
2026-04-20 12:54 66.74627 25.42550 24272 ft 432 kts 180°
2026-04-20 12:54 66.71621 25.43045 24573 ft 434 kts 180°
2026-04-20 12:55 66.68603 25.43537 24814 ft 435 kts 180°
2026-04-20 12:55 66.65580 25.44025 25054 ft 436 kts 180°
2026-04-20 12:55 66.62547 25.44513 25292 ft 438 kts 180°
2026-04-20 12:55 66.59503 25.45002 25539 ft 439 kts 180°
2026-04-20 12:56 66.56491 25.45485 25791 ft 440 kts 180°
2026-04-20 12:56 66.53430 25.45971 26041 ft 442 kts 180°
2026-04-20 12:56 66.50352 25.46459 26307 ft 445 kts 179°
2026-04-20 12:56 66.47251 25.46947 26563 ft 448 kts 179°
2026-04-20 12:57 66.44133 25.47439 26804 ft 449 kts 179°
2026-04-20 12:57 66.41011 25.47933 27067 ft 450 kts 179°
2026-04-20 12:57 66.37883 25.48426 27330 ft 451 kts 179°
2026-04-20 12:57 66.34741 25.48926 27595 ft 453 kts 178°
2026-04-20 12:58 66.31592 25.49430 27859 ft 454 kts 178°
2026-04-20 12:58 66.28432 25.49932 28135 ft 456 kts 178°
2026-04-20 12:58 66.25303 25.50426 28406 ft 457 kts 178°
2026-04-20 12:58 66.22118 25.50921 28683 ft 460 kts 178°
2026-04-20 12:59 66.18914 25.51419 28963 ft 463 kts 178°
2026-04-20 12:59 66.15689 25.51921 29245 ft 465 kts 178°
2026-04-20 12:59 66.12455 25.52420 29529 ft 467 kts 178°
2026-04-20 12:59 66.09202 25.52921 29819 ft 469 kts 178°
2026-04-20 13:00 66.05939 25.53304 30090 ft 470 kts 180°
2026-04-20 13:00 66.02666 25.53352 30387 ft 471 kts 182°
2026-04-20 13:00 65.99387 25.53137 30640 ft 472 kts 184°
2026-04-20 13:00 65.96150 25.52788 30883 ft 473 kts 184°
2026-04-20 13:01 65.92861 25.52401 31133 ft 473 kts 184°
2026-04-20 13:01 65.89569 25.52052 31387 ft 474 kts 184°
2026-04-20 13:01 65.86270 25.51775 31642 ft 475 kts 183°
2026-04-20 13:01 65.82963 25.51570 31902 ft 475 kts 182°
2026-04-20 13:02 65.79660 25.51405 32174 ft 475 kts 182°
2026-04-20 13:02 65.76358 25.51251 32437 ft 474 kts 182°
2026-04-20 13:02 65.73065 25.51090 32705 ft 473 kts 182°
2026-04-20 13:02 65.69780 25.50919 32976 ft 472 kts 182°
2026-04-20 13:03 65.66542 25.50735 33245 ft 471 kts 182°
2026-04-20 13:03 65.63270 25.50536 33515 ft 470 kts 182°
2026-04-20 13:03 65.60003 25.50327 33795 ft 469 kts 182°
2026-04-20 13:03 65.56741 25.50122 34084 ft 468 kts 182°
2026-04-20 13:04 65.53486 25.49922 34367 ft 467 kts 182°
2026-04-20 13:04 65.50241 25.49729 34611 ft 467 kts 182°
2026-04-20 13:04 65.46995 25.49541 34852 ft 466 kts 182°
2026-04-20 13:04 65.43752 25.49358 35095 ft 466 kts 182°
2026-04-20 13:05 65.40515 25.49174 35340 ft 465 kts 182°
2026-04-20 13:05 65.37279 25.48995 35600 ft 464 kts 181°
2026-04-20 13:05 65.34095 25.48815 35847 ft 463 kts 181°
2026-04-20 13:05 65.30876 25.48629 36097 ft 462 kts 181°
2026-04-20 13:06 65.27666 25.48443 36353 ft 461 kts 181°
2026-04-20 13:06 65.24464 25.48261 36610 ft 459 kts 181°
2026-04-20 13:06 65.21277 25.48072 36871 ft 458 kts 181°
2026-04-20 13:06 65.18098 25.47876 37130 ft 456 kts 181°
2026-04-20 13:07 65.14934 25.47688 37353 ft 455 kts 181°
2026-04-20 13:07 65.08555 25.47329 37414 ft 462 kts 181°
2026-04-20 13:08 65.02143 25.46972 37409 ft 465 kts 181°
2026-04-20 13:08 64.95675 25.46606 37409 ft 465 kts 181°
2026-04-20 13:09 64.89203 25.46232 37409 ft 465 kts 181°
2026-04-20 13:09 64.82729 25.45849 37412 ft 466 kts 181°
2026-04-20 13:10 64.76292 25.45490 37412 ft 466 kts 181°
2026-04-20 13:10 64.69816 25.45135 37411 ft 466 kts 180°
2026-04-20 13:11 64.63336 25.44769 37407 ft 466 kts 180°
2026-04-20 13:11 64.56858 25.44398 37405 ft 466 kts 180°
2026-04-20 13:12 64.50380 25.44046 37403 ft 466 kts 180°
2026-04-20 13:12 64.43946 25.43708 37400 ft 465 kts 180°
2026-04-20 13:13 64.37472 25.43351 37396 ft 466 kts 180°
2026-04-20 13:13 64.30998 25.42977 37399 ft 465 kts 180°
2026-04-20 13:14 64.24517 25.42603 37409 ft 466 kts 180°
2026-04-20 13:14 64.18036 25.42249 37405 ft 466 kts 180°
2026-04-20 13:15 64.11590 25.41911 37388 ft 467 kts 180°
2026-04-20 13:15 64.05098 25.41561 37390 ft 467 kts 180°
2026-04-20 13:16 63.98607 25.41206 37392 ft 467 kts 179°
2026-04-20 13:16 63.92111 25.40873 37390 ft 467 kts 179°
2026-04-20 13:17 63.85615 25.40532 37390 ft 467 kts 180°
2026-04-20 13:17 63.79165 25.40189 37384 ft 467 kts 179°
2026-04-20 13:18 63.72669 25.39844 37391 ft 467 kts 180°
2026-04-20 13:18 63.66178 25.39494 37384 ft 467 kts 179°
2026-04-20 13:19 63.59681 25.39150 37386 ft 467 kts 179°
2026-04-20 13:19 63.53226 25.38817 37402 ft 467 kts 179°
2026-04-20 13:20 63.46720 25.38481 37386 ft 468 kts 179°
2026-04-20 13:20 63.40215 25.38156 37378 ft 468 kts 179°
2026-04-20 13:21 63.33705 25.37833 37387 ft 468 kts 179°
2026-04-20 13:21 63.27196 25.37491 37387 ft 468 kts 179°
2026-04-20 13:22 63.20732 25.37156 37382 ft 467 kts 179°
2026-04-20 13:22 63.14229 25.36823 37380 ft 467 kts 179°
2026-04-20 13:23 63.07731 25.36488 37374 ft 467 kts 179°
2026-04-20 13:23 63.01232 25.36168 37387 ft 467 kts 178°
2026-04-20 13:24 62.94777 25.35863 37382 ft 467 kts 178°
2026-04-20 13:24 62.88282 25.35542 37381 ft 467 kts 178°
2026-04-20 13:25 62.81778 25.35212 37380 ft 467 kts 178°
2026-04-20 13:25 62.75274 25.34890 37394 ft 468 kts 178°
2026-04-20 13:26 62.68760 25.34577 37389 ft 468 kts 178°
2026-04-20 13:26 62.62293 25.34261 37385 ft 468 kts 178°
2026-04-20 13:27 62.55774 25.33941 37373 ft 468 kts 178°
2026-04-20 13:27 62.49262 25.33632 37374 ft 468 kts 178°
2026-04-20 13:28 62.42745 25.33313 37368 ft 468 kts 178°
2026-04-20 13:28 62.36277 25.32988 37365 ft 468 kts 178°
2026-04-20 13:29 62.29767 25.32680 37366 ft 468 kts 178°
2026-04-20 13:29 62.23255 25.32381 37363 ft 468 kts 178°
2026-04-20 13:30 62.16742 25.32077 37360 ft 468 kts 178°
2026-04-20 13:30 62.10231 25.31772 37360 ft 468 kts 178°
2026-04-20 13:31 62.03766 25.31473 37368 ft 468 kts 178°
2026-04-20 13:31 61.97250 25.31163 37365 ft 468 kts 177°
2026-04-20 13:32 61.90733 25.30860 37357 ft 469 kts 177°
2026-04-20 13:32 61.85314 25.30616 37351 ft 469 kts 177°
2026-04-20 13:33 61.77736 25.30264 37350 ft 469 kts 177°
2026-04-20 13:33 61.71211 25.29957 37351 ft 469 kts 177°
2026-04-20 13:34 61.65784 25.29706 37361 ft 469 kts 177°
2026-04-20 13:34 61.59269 25.28430 37360 ft 474 kts 187°
2026-04-20 13:35 61.51741 25.25293 37357 ft 475 kts 187°
2026-04-20 13:35 61.46313 25.23033 37357 ft 475 kts 187°
2026-04-20 13:36 61.39873 25.20378 37365 ft 475 kts 187°
2026-04-20 13:36 61.33390 25.17742 37363 ft 475 kts 187°
2026-04-20 13:37 61.25855 25.14676 37355 ft 474 kts 187°
2026-04-20 13:37 61.20425 25.12475 37377 ft 474 kts 187°
2026-04-20 13:38 61.13985 25.09871 37355 ft 475 kts 187°
2026-04-20 13:38 61.07499 25.07263 37363 ft 475 kts 187°
2026-04-20 13:39 61.01009 25.04671 37353 ft 475 kts 187°
2026-04-20 13:39 60.94515 25.02077 37349 ft 475 kts 187°
2026-04-20 13:40 60.88069 24.99514 37338 ft 475 kts 187°
2026-04-20 13:40 60.81584 24.96953 37336 ft 475 kts 187°
2026-04-20 13:41 60.75094 24.94398 37344 ft 475 kts 187°
2026-04-20 13:41 60.68610 24.91839 37339 ft 475 kts 187°
2026-04-20 13:42 60.62166 24.89322 37333 ft 475 kts 187°
2026-04-20 13:42 60.52431 24.85548 37326 ft 475 kts 187°
2026-04-20 13:43 60.45942 24.83035 37331 ft 475 kts 187°
2026-04-20 13:43 60.39451 24.80520 37328 ft 475 kts 187°
2026-04-20 13:44 60.33005 24.78057 37341 ft 475 kts 187°
2026-04-20 13:44 60.26513 24.75570 37338 ft 475 kts 187°
2026-04-20 13:45 60.20018 24.73092 37347 ft 475 kts 187°
2026-04-20 13:45 60.13522 24.70638 37367 ft 475 kts 187°
2026-04-20 13:46 60.07069 24.68202 37353 ft 475 kts 187°
2026-04-20 13:46 60.00569 24.65744 37354 ft 476 kts 187°
2026-04-20 13:47 59.94064 24.63304 37346 ft 476 kts 187°
2026-04-20 13:47 59.87592 24.60902 37356 ft 476 kts 187°
2026-04-20 13:48 59.81082 24.58491 37347 ft 477 kts 187°
2026-04-20 13:48 59.74557 24.56076 37344 ft 477 kts 187°
2026-04-20 13:49 59.68031 24.53657 37339 ft 477 kts 187°
2026-04-20 13:49 59.61506 24.51256 37349 ft 477 kts 187°
2026-04-20 13:50 59.55021 24.48899 37341 ft 477 kts 187°
2026-04-20 13:50 59.48487 24.46521 37339 ft 478 kts 187°
2026-04-20 13:51 59.41948 24.44146 37340 ft 478 kts 187°
2026-04-20 13:51 59.35410 24.41788 37342 ft 478 kts 186°
2026-04-20 13:52 59.28868 24.39436 37333 ft 478 kts 187°
2026-04-20 13:52 59.22370 24.37093 37343 ft 478 kts 187°
2026-04-20 13:53 59.15827 24.34736 37343 ft 478 kts 186°
2026-04-20 13:53 59.09280 24.32413 37340 ft 478 kts 186°
2026-04-20 13:54 59.02732 24.30103 37344 ft 479 kts 186°
2026-04-20 13:54 58.96226 24.27810 37315 ft 478 kts 186°
2026-04-20 13:55 58.89679 24.25496 37314 ft 479 kts 186°
2026-04-20 13:55 58.83121 24.23195 37300 ft 479 kts 186°
2026-04-20 13:56 58.76565 24.20915 37299 ft 479 kts 186°
2026-04-20 13:56 58.70046 24.18646 37310 ft 479 kts 186°
2026-04-20 13:57 58.63488 24.16371 37303 ft 479 kts 186°
2026-04-20 13:57 58.56930 24.14105 37300 ft 479 kts 186°
2026-04-20 13:58 58.50370 24.11854 37302 ft 479 kts 186°
2026-04-20 13:58 58.43857 24.09628 37292 ft 479 kts 186°
2026-04-20 13:59 58.37307 24.07394 37286 ft 478 kts 186°
2026-04-20 13:59 58.30754 24.05167 37282 ft 478 kts 186°
2026-04-20 14:00 58.24202 24.02952 37279 ft 478 kts 186°
2026-04-20 14:00 58.17653 24.00731 37292 ft 478 kts 186°
2026-04-20 14:01 58.11141 23.98540 37286 ft 478 kts 186°
2026-04-20 14:01 58.04599 23.96347 36735 ft 476 kts 186°
2026-04-20 14:02 58.01340 23.95260 36337 ft 475 kts 186°
2026-04-20 14:02 57.98076 23.94176 36216 ft 476 kts 186°
2026-04-20 14:02 57.91539 23.92014 36257 ft 478 kts 186°
2026-04-20 14:03 57.84990 23.89849 36259 ft 478 kts 186°
2026-04-20 14:03 57.78486 23.87700 36260 ft 478 kts 186°
2026-04-20 14:04 57.71934 23.85547 36260 ft 478 kts 186°
2026-04-20 14:04 57.65382 23.83395 36260 ft 478 kts 186°
2026-04-20 14:05 57.58829 23.81244 36249 ft 478 kts 186°
2026-04-20 14:05 57.52320 23.79125 36250 ft 478 kts 186°
2026-04-20 14:06 57.45767 23.77007 36246 ft 478 kts 186°
2026-04-20 14:06 57.39220 23.74899 36250 ft 478 kts 186°
2026-04-20 14:07 57.32669 23.72791 36259 ft 478 kts 187°
2026-04-20 14:07 57.26160 23.70702 36253 ft 478 kts 187°
2026-04-20 14:08 57.19600 23.68599 36244 ft 478 kts 187°
2026-04-20 14:08 57.13040 23.66512 36244 ft 478 kts 187°
2026-04-20 14:09 57.06477 23.64432 36252 ft 478 kts 187°
2026-04-20 14:09 56.99965 23.62375 36244 ft 478 kts 187°
2026-04-20 14:10 56.93405 23.60326 36227 ft 478 kts 187°
2026-04-20 14:10 56.86852 23.58279 36229 ft 478 kts 187°
2026-04-20 14:11 56.80298 23.56220 36227 ft 478 kts 187°
2026-04-20 14:11 56.73745 23.54171 36226 ft 477 kts 187°
2026-04-20 14:12 56.67243 23.52150 36228 ft 477 kts 187°
2026-04-20 14:12 56.60698 23.50128 36228 ft 477 kts 187°
2026-04-20 14:13 56.54154 23.48115 36222 ft 477 kts 187°
2026-04-20 14:13 56.47609 23.46103 36223 ft 477 kts 187°
2026-04-20 14:14 56.41109 23.44108 36214 ft 477 kts 187°
2026-04-20 14:14 56.34565 23.42166 36212 ft 476 kts 186°
2026-04-20 14:15 56.27988 23.40806 36212 ft 475 kts 182°
2026-04-20 14:15 56.21397 23.39776 36204 ft 475 kts 182°
2026-04-20 14:16 56.14856 23.38678 36201 ft 475 kts 183°
2026-04-20 14:16 56.08276 23.37451 36192 ft 475 kts 184°
2026-04-20 14:17 56.01697 23.36195 36192 ft 476 kts 184°
2026-04-20 14:17 55.95114 23.34969 36196 ft 476 kts 184°
2026-04-20 14:18 55.88571 23.33766 36193 ft 476 kts 184°
2026-04-20 14:18 55.81982 23.32561 36193 ft 476 kts 184°
2026-04-20 14:19 55.75396 23.31365 36190 ft 476 kts 184°
2026-04-20 14:19 55.68807 23.30162 36191 ft 476 kts 184°
2026-04-20 14:20 55.62261 23.28963 36180 ft 476 kts 184°
2026-04-20 14:20 55.55673 23.27768 36175 ft 476 kts 184°
2026-04-20 14:21 55.49079 23.26589 36172 ft 476 kts 184°
2026-04-20 14:21 55.42485 23.25408 36166 ft 476 kts 184°
2026-04-20 14:22 55.35934 23.24234 36163 ft 476 kts 184°
2026-04-20 14:22 55.29344 23.23058 36163 ft 476 kts 184°
2026-04-20 14:23 55.22750 23.21882 36158 ft 476 kts 184°
2026-04-20 14:23 55.16152 23.20719 36160 ft 476 kts 184°
2026-04-20 14:24 55.09561 23.19557 36152 ft 476 kts 185°
2026-04-20 14:24 55.03013 23.18404 36150 ft 476 kts 185°
2026-04-20 14:25 54.96417 23.17238 36149 ft 476 kts 185°
2026-04-20 14:25 54.89829 23.16088 36150 ft 476 kts 185°
2026-04-20 14:26 54.83243 23.14942 36149 ft 475 kts 185°
2026-04-20 14:26 54.76710 23.13806 36138 ft 475 kts 185°
2026-04-20 14:27 54.70135 23.12660 36142 ft 475 kts 185°
2026-04-20 14:27 54.63558 23.11528 36141 ft 475 kts 185°
2026-04-20 14:28 54.56982 23.10400 36136 ft 475 kts 185°
2026-04-20 14:28 54.50455 23.09280 36134 ft 475 kts 185°
2026-04-20 14:29 54.43881 23.08158 36129 ft 475 kts 185°
2026-04-20 14:29 54.37307 23.07036 36125 ft 475 kts 185°
2026-04-20 14:30 54.30841 23.04975 36127 ft 474 kts 202°
2026-04-20 14:30 54.27916 23.02406 36125 ft 473 kts 215°
2026-04-20 14:30 54.25274 22.99192 36126 ft 473 kts 217°
2026-04-20 14:31 54.19926 22.92620 36119 ft 473 kts 217°
2026-04-20 14:31 54.14571 22.86072 36120 ft 474 kts 216°